Location: Napa Junction
(38.1874°N, 122.2508°W)
Time: 23:01:18
(UTC+00:00)

CENTAUR R/B - Pass Details

Date: 12 December 2024
Orbit: 654 x 1528 km, 63.4° (Epoch: 19 January)

Event Time Altitude Azimuth Distance (km) Brightness Sun altitude
Rises 11:58:58 0° 157° (SSE) 3,122 5.4 -38.0°
Reaches altitude 10° 12:02:31 10° 129° (SE) 2,334 5.0 -37.3°
Maximum altitude 12:04:53 13° 102° (ESE) 2,227 5.1 -36.8°
Drops below altitude 10° 12:07:25 10° 76° (ENE) 2,554 5.4 -36.3°
Sets 12:11:41 0° 51° (NE) 3,712 6.1 -35.5°
